User: anonymous
Location: Caltech
(34.1382°N, 118.1253°W)
Time: 14:42:35
(UTC-07:00)
Language:

Iridium 62 - Orbit

View from above orbital plane
View from above orbital plane
View from above satellite
View from above satellite

Ground track
Ground track

The orbit data is extracted from the following two-line orbital elements,

1 25285U 98021A   14203.31361097  .00000232  00000-0  75959-4 0  8559
2 25285 086.3990 307.3450 0002239 112.4264 247.7169 14.34213373852964
Epoch (UTC): 22 July 2014 07:31:35
Eccentricity: 0.0002239
inclination: 86.3990°
perigee height: 776 km
apogee height: 779 km
right ascension of ascending node: 307.3450°
argument of perigee: 112.4264°
revolutions per day: 14.34213373
mean anomaly at epoch: 247.7169°
orbit number at epoch: 85296

The dashed part of the orbit path shows where the satellite is in the earth's shadow,  

DLR